Location: Balaclava NSW 2575, Australia
(34.4510°S, 150.4953°E)
Time: 18:08:40
(UTC+10:00)

Vanguard 2 - Pass Details

Date: 18 June 2021
Orbit: 552 x 2937 km, 32.9° (Epoch: 24 July)

Event Time Altitude Azimuth Distance (km) Brightness Sun altitude
Rises 10:11:57 0° 261° (W) 5,053 11.4 26.8°
Reaches altitude 10° 10:14:48 10° 263° (W) 4,330 11.1 27.1°
Maximum altitude 10:27:37 72° 344° (NNW) 2,673 11.0 28.2°
Drops below altitude 10° 10:45:22 10° 63° (ENE) 5,768 12.8 29.5°
Sets 10:49:52 0° 65° (ENE) 6,749 12.9 29.8°
